Theta_e
315 313 313 311 312 312 311 312 317 324 322 319 323 324 320 317 317 319 319 316 314 315 315 314 314 314 315 317 315 312 312 313 313 312 312 312 313 315 318 321 325 326 324 322 323 327 329 331 333 333 334 334 335 335 335 334 334 334 334 333 333 333 334 334 334 335 334 334 334 334 334 334 334 333 333 333 332 332 332 332 331 331 330 329 329 329
314 314 313 311 312 312 312 314 316 316 315 316 320 321 319 318 317 315 316 316 313 314 315 313 313 314 315 315 314 311 312 314 313 313 313 312 311 313 315 319 322 322 320 318 319 323 328 330 331 333 333 334 334 334 335 334 334 334 334 334 334 333 334 334 334 334 333 333 333 333 334 334 334 333 333 332 332 332 331 331 331 331 331 331 331 331
315 314 313 310 312 312 312 314 314 313 313 315 317 320 321 320 317 313 313 316 314 314 316 315 314 314 315 314 313 312 312 313 312 312 312 312 312 312 313 316 318 319 319 320 318 318 324 328 330 332 333 333 334 334 334 334 334 334 334 334 334 334 334 334 334 333 332 332 332 333 333 333 333 333 332 332 332 332 331 331 330 330 331 331 331 331
316 315 312 310 310 310 311 311 312 312 312 315 317 319 321 319 317 315 313 315 314 313 315 318 317 315 315 314 316 314 312 312 313 312 312 312 313 312 312 313 315 317 319 321 320 317 320 326 328 330 332 333 333 333 333 333 334 334 334 334 333 334 334 334 333 333 332 331 332 333 332 331 331 332 331 332 331 331 332 331 330 331 331 331 331 331
316 315 312 311 310 309 310 311 311 311 312 315 317 318 320 319 318 317 315 315 313 312 313 316 317 320 319 315 317 316 311 312 312 313 313 312 314 315 313 312 314 316 317 320 324 320 317 322 327 329 331 332 332 332 333 333 333 334 334 334 334 333 334 334 333 333 332 332 333 333 332 331 331 332 332 331 331 331 330 330 330 331 331 331 332 331
314 312 310 311 311 310 310 310 312 312 312 314 318 319 318 318 319 319 317 315 314 314 315 313 314 326 329 317 314 313 312 314 312 313 314 312 314 317 317 316 316 317 317 319 321 319 316 320 325 328 330 330 332 332 332 333 333 333 334 333 334 334 333 334 333 333 333 333 333 333 333 332 332 331 331 331 330 330 329 329 330 331 331 332 332 331
314 311 310 311 311 311 312 311 312 313 312 313 318 319 316 316 319 320 317 317 317 317 315 312 314 323 326 318 315 313 312 315 314 314 315 313 313 317 319 320 321 320 319 319 317 314 313 318 321 323 327 329 331 332 332 332 333 332 333 333 334 334 333 333 333 333 333 333 333 333 333 333 332 331 331 330 330 330 330 330 330 331 331 332 331 331
313 311 312 312 312 313 312 312 313 313 313 317 320 318 316 316 319 319 316 321 323 317 315 317 317 316 316 316 317 313 311 313 313 314 316 314 313 317 319 321 325 324 322 321 322 316 310 312 317 320 324 328 329 331 331 332 332 332 333 333 333 333 333 333 333 333 333 333 332 332 332 332 331 331 330 330 330 330 330 329 329 329 329 329 329 328
314 313 314 313 313 312 310 312 316 312 313 321 320 316 316 315 318 318 317 324 324 315 316 320 315 312 319 324 318 312 312 314 313 314 315 314 314 317 321 324 328 329 325 324 327 320 311 309 314 317 320 322 324 326 327 329 330 331 332 333 333 333 333 333 333 333 333 333 332 332 332 331 331 330 330 330 329 329 328 327 327 327 327 327 326 326
315 313 313 314 313 312 313 318 320 313 313 320 318 318 319 318 319 318 320 325 319 313 319 321 314 311 321 330 320 310 313 317 315 313 312 313 314 318 323 327 331 330 327 327 322 314 311 312 312 313 314 315 316 317 319 320 323 327 330 331 333 333 333 333 333 333 333 332 332 331 331 330 330 329 328 328 328 327 326 326 326 326 325 325 325 325
316 311 312 315 314 314 317 321 322 320 317 317 320 320 319 322 327 329 333 329 315 317 328 325 317 311 315 326 322 313 316 318 316 314 313 313 315 319 323 326 329 329 327 328 321 311 310 313 313 312 312 312 312 312 312 312 315 321 325 328 331 332 332 333 333 333 333 332 332 331 331 330 329 328 328 327 326 326 326 325 325 324 324 324 323 323
315 314 315 317 316 314 317 318 318 319 316 318 326 322 317 325 331 332 332 324 315 323 328 322 316 312 314 323 321 316 317 316 315 316 316 315 315 319 323 322 324 326 327 326 323 315 310 310 312 312 313 312 312 312 310 310 312 318 322 325 329 330 331 332 332 332 332 331 331 330 330 330 329 328 328 327 326 325 325 324 324 323 322 322 321 320
316 320 319 318 316 313 317 319 315 315 316 317 323 319 317 324 322 321 323 320 320 322 317 314 314 314 316 319 318 318 317 315 314 312 314 316 318 321 322 322 321 322 325 323 322 321 313 308 311 312 312 312 312 312 311 310 312 317 323 325 327 328 329 330 331 331 330 330 329 329 329 329 329 328 327 326 325 324 324 323 322 321 320 319 318 317
318 323 319 318 317 312 316 318 316 319 317 314 316 315 320 324 317 315 319 318 320 320 313 311 313 317 319 316 315 317 315 314 315 314 313 315 318 321 320 321 320 319 321 321 321 322 315 307 310 312 312 313 312 313 312 310 312 317 322 325 326 327 328 329 329 329 329 329 328 328 328 328 327 326 326 325 324 323 322 321 320 319 318 317 317 316
317 320 316 316 316 312 314 315 317 323 319 315 318 317 322 328 323 319 321 321 322 321 315 310 314 322 321 314 313 314 312 313 318 319 316 315 318 319 319 320 320 319 319 318 318 318 311 307 311 313 313 314 313 314 313 311 314 318 321 324 325 326 326 327 327 327 327 327 327 327 326 326 325 325 324 323 322 322 320 318 317 317 316 315 315 314
316 316 316 318 315 312 315 314 316 320 318 318 318 318 320 323 327 324 320 326 327 320 316 313 318 326 319 311 312 312 313 316 319 320 318 320 320 320 322 322 320 320 318 316 318 316 309 307 312 314 315 316 315 315 315 313 315 319 321 323 324 324 325 325 326 326 326 325 325 325 324 324 324 323 322 321 320 319 317 315 314 315 314 312 310 308
317 316 317 319 314 311 313 314 315 317 317 317 315 319 320 317 325 323 313 319 321 316 318 315 317 323 316 311 314 312 314 317 317 318 319 321 319 320 324 321 318 319 317 315 317 314 308 307 310 312 314 316 316 316 316 315 317 319 320 321 322 322 323 323 324 324 324 324 323 323 323 322 322 321 320 319 318 317 315 314 313 312 310 308 306 305
318 318 317 317 314 313 312 312 315 315 316 317 315 318 317 312 321 323 314 319 318 317 323 316 313 320 315 316 320 313 315 319 316 317 318 317 318 319 321 318 316 317 315 314 313 310 306 306 308 310 311 313 315 317 317 317 317 318 319 319 319 321 321 322 322 322 322 322 322 321 321 320 320 319 318 317 315 314 313 312 310 308 306 305 304 304
319 320 318 314 315 318 317 316 316 313 312 316 318 317 317 316 319 318 315 319 316 314 323 317 313 319 316 318 323 314 316 320 314 315 318 317 318 319 318 318 316 314 313 313 313 310 305 304 307 308 309 310 313 316 317 317 317 317 317 318 318 319 320 321 321 321 320 320 320 320 319 319 318 317 315 314 312 311 310 308 306 304 304 303 303 302
318 321 320 315 313 316 319 318 317 316 313 314 314 312 317 322 322 318 316 319 317 315 321 317 312 320 321 317 321 318 318 317 312 315 318 317 317 316 316 317 315 314 314 312 312 310 304 303 306 308 308 309 310 313 315 316 316 316 316 316 317 317 318 319 319 318 317 317 318 317 316 316 315 314 313 311 309 308 306 305 304 304 303 302 300 299
314 319 321 317 313 314 317 317 317 317 316 315 315 313 314 316 317 319 317 318 321 321 323 317 314 328 328 316 317 318 316 314 311 314 315 313 314 314 313 315 314 313 312 310 311 309 303 302 305 306 307 307 308 310 312 314 315 315 315 315 315 316 316 316 315 315 314 314 315 314 314 313 313 311 310 308 306 305 304 303 303 302 300 299 297 296
315 316 319 318 316 317 319 316 314 315 315 315 315 315 316 316 317 318 315 316 318 318 323 320 317 330 327 313 314 316 312 310 310 312 313 312 312 313 312 313 313 312 311 310 310 307 302 302 304 304 305 306 307 307 308 311 312 312 313 313 313 313 313 313 312 312 312 312 312 312 312 311 309 308 306 305 304 303 302 302 300 298 297 296 295 295
320 321 322 320 318 319 319 315 311 312 314 314 313 315 318 318 319 318 318 319 315 312 317 318 316 327 328 315 313 316 314 312 310 310 311 311 311 312 313 313 311 311 310 309 307 303 301 302 303 303 304 304 305 306 307 308 309 309 310 310 311 311 311 311 310 310 310 310 310 310 309 307 305 304 304 303 303 302 300 298 297 296 295 295 294 294
320 320 321 319 317 319 320 317 313 311 313 315 315 316 317 317 321 327 327 324 316 313 315 313 313 328 335 322 317 317 316 315 312 309 309 311 311 311 313 313 311 310 310 308 306 302 300 302 302 302 303 303 304 305 305 306 307 308 309 309 309 309 308 308 308 307 307 307 307 306 305 303 303 303 302 301 300 298 297 296 295 294 294 294 293 293
318 319 319 318 318 318 320 318 315 313 313 318 319 317 317 320 320 321 320 315 314 319 320 315 318 327 330 323 318 316 314 315 316 310 309 312 313 312 313 312 310 310 310 308 306 304 301 301 301 301 302 302 303 303 304 304 305 306 307 307 307 307 306 305 305 305 305 305 304 303 302 302 302 301 300 298 297 295 295 294 294 293 293 293 292 292
322 322 318 318 318 317 317 316 316 316 315 317 318 315 318 321 317 316 318 314 316 319 316 315 321 323 322 320 316 313 312 315 317 311 309 312 312 312 312 311 310 310 309 308 306 305 304 301 300 301 302 302 302 302 302 303 304 304 305 305 305 305 304 303 303 303 303 303 302 301 301 300 299 298 297 295 295 294 294 293 293 293 292 292 292 292
326 322 316 316 316 315 316 317 319 320 317 316 319 318 319 319 316 319 322 319 321 321 316 318 320 316 315 317 317 319 318 318 319 316 312 312 312 312 312 311 310 309 308 307 306 305 305 303 301 300 301 301 301 302 302 303 303 303 303 303 303 303 303 302 302 302 302 302 301 300 299 298 297 296 295 294 294 293 293 293 292 292 292 292 292 291
324 320 315 316 315 314 316 317 318 319 316 316 318 319 320 319 317 319 319 317 321 320 316 319 320 314 313 316 319 324 321 319 322 319 313 311 312 313 313 311 310 309 307 307 306 305 306 305 302 300 300 301 301 301 302 302 302 302 302 302 301 301 301 301 301 301 301 301 300 298 297 296 295 294 294 294 293 293 293 292 292 292 292 291 291 291
320 318 317 315 315 317 317 315 316 317 315 315 316 316 317 318 317 317 316 316 318 316 313 315 317 315 315 317 320 323 321 317 316 315 313 313 314 313 313 313 311 310 309 308 306 305 305 305 302 300 300 300 300 300 300 301 301 301 301 301 301 301 301 301 301 301 300 299 297 296 295 294 293 293 293 293 292 292 292 292 291 291 291 291 291 291
317 319 319 316 314 318 320 317 316 316 315 315 316 316 316 316 317 316 315 315 316 316 315 314 316 316 315 317 318 319 317 312 311 314 315 316 316 314 313 313 312 310 309 308 306 305 305 304 302 300 300 299 299 299 299 300 300 300 300 300 300 301 301 301 300 299 298 297 295 294 293 293 293 293 292 292 292 292 291 291 291 291 290 290 290 290
314 317 317 316 314 315 319 319 316 315 316 316 317 317 316 316 316 315 315 315 314 315 315 314 316 316 314 315 316 316 313 309 310 317 317 314 315 314 313 313 312 311 309 308 307 306 305 304 301 300 300 299 299 299 299 299 300 300 300 300 300 301 300 299 299 298 296 295 294 293 293 292 292 292 292 291 291 291 291 291 290 290 290 290 289 289
318 317 315 317 316 314 316 318 316 315 314 315 317 318 317 316 315 314 315 315 314 315 315 316 316 313 313 316 317 316 314 311 313 317 315 313 314 314 314 314 312 311 310 308 307 306 306 305 302 300 300 299 299 299 299 299 300 300 300 300 300 300 299 298 297 296 295 294 293 292 292 292 292 291 291 291 291 290 290 290 290 289 289 289 289 289
323 320 318 319 317 314 314 316 317 316 316 316 317 316 315 315 314 314 315 316 315 314 315 315 313 312 316 320 317 315 314 315 317 317 312 312 314 313 313 314 312 311 310 309 308 307 306 305 303 301 301 300 299 299 300 300 300 300 300 300 299 299 297 296 295 294 294 293 292 292 291 291 291 291 290 290 290 290 290 289 289 289 289 289 289 289
323 321 319 322 321 316 314 314 317 319 318 317 318 317 314 314 315 315 315 315 314 313 314 313 313 315 319 320 317 316 316 316 318 315 310 311 315 316 314 313 312 311 310 309 309 307 305 304 303 302 302 301 300 300 300 300 300 300 299 299 299 298 296 295 294 294 293 292 291 291 291 291 290 290 290 290 290 290 289 289 289 289 289 289 289 289
319 319 321 325 324 318 315 315 318 318 316 317 322 320 314 312 314 315 315 314 313 314 314 314 314 315 317 318 316 315 314 315 317 317 313 312 314 318 317 315 312 311 311 310 310 307 305 303 303 303 302 301 301 300 299 299 299 299 299 299 298 297 295 294 293 293 292 291 291 291 290 290 290 290 290 289 289 289 289 289 289 289 288 288 288 288
317 320 322 323 321 319 318 319 318 316 315 317 321 318 313 313 314 314 315 315 314 314 314 314 313 312 314 317 314 313 315 315 316 318 316 313 312 315 317 315 313 312 311 310 309 306 304 304 304 303 302 301 300 299 299 299 299 298 298 298 297 295 294 293 292 292 292 291 290 290 290 290 290 290 289 289 289 289 288 288 288 288 288 288 288 288
315 320 322 319 318 320 321 320 318 318 318 319 320 317 315 317 317 315 316 316 315 315 314 313 313 312 313 314 312 313 315 314 313 317 318 315 313 312 313 313 312 311 309 307 306 306 305 305 304 303 302 301 300 300 299 299 298 298 297 296 295 294 293 292 292 292 291 291 290 290 289 289 289 289 289 289 288 288 288 288 288 288 288 287 287 287
314 318 319 317 318 320 321 320 320 321 320 318 318 318 316 318 320 317 316 316 316 315 313 312 313 313 313 314 314 314 313 312 313 315 315 317 316 311 310 309 306 305 307 305 305 306 305 305 304 303 302 301 300 299 299 298 298 297 296 295 294 292 292 291 291 291 290 290 290 289 289 289 289 289 289 288 288 288 288 288 288 287 287 287 287 287
316 317 316 317 318 318 320 320 320 321 319 318 320 320 315 316 319 316 314 315 316 317 316 313 312 314 314 315 315 314 314 314 315 313 312 318 318 310 308 308 304 303 306 306 306 306 305 305 304 303 302 300 300 299 299 298 297 296 295 294 293 292 291 291 291 290 290 290 289 288 289 289 289 288 288 288 288 288 288 287 287 287 287 287 287 286
315 315 315 317 317 316 318 318 318 318 318 319 323 319 313 313 316 316 316 316 316 318 318 314 313 315 315 314 313 314 314 315 314 313 317 321 317 307 304 307 306 303 304 305 306 306 305 304 303 301 300 300 300 299 299 298 296 295 294 293 292 291 290 290 290 290 289 289 288 288 289 289 288 288 288 288 288 287 287 287 287 287 287 286 286 286
315 315 315 315 316 316 316 317 318 317 319 324 324 317 312 313 314 316 318 319 319 317 315 314 316 315 312 314 314 312 312 316 316 317 316 315 313 309 302 299 300 301 302 304 305 304 304 303 302 302 301 300 300 298 298 297 296 294 294 292 291 290 290 290 290 289 289 289 288 288 288 288 287 287 287 287 287 287 287 286 286 286 286 286 286 285
315 316 316 314 314 315 315 316 317 317 318 321 318 312 311 313 316 320 320 318 319 319 314 314 317 315 312 315 315 311 314 320 318 316 314 312 316 316 304 296 297 299 299 301 302 303 302 301 300 300 299 299 299 298 297 297 295 294 293 292 291 290 290 290 289 289 288 288 288 288 288 287 287 287 287 287 287 286 286 286 286 286 286 285 285 285
314 314 315 313 313 316 315 314 316 316 314 313 312 310 311 315 325 331 325 314 313 318 318 317 318 317 315 315 313 312 317 320 316 314 313 310 311 311 303 296 297 297 296 298 300 300 300 299 298 298 298 297 297 297 296 296 294 293 292 291 290 290 289 289 289 288 288 287 288 288 287 287 287 286 286 286 286 286 286 286 286 285 285 285 285 284
314 314 315 313 313 316 315 313 318 319 312 310 313 313 312 315 321 325 323 316 313 315 319 319 318 315 315 316 315 313 315 319 316 315 315 311 308 307 301 295 294 294 295 297 297 297 298 298 296 296 296 296 296 296 295 295 294 292 291 290 289 289 289 289 288 288 287 287 287 287 286 286 286 286 286 286 285 285 286 285 285 285 284 284 284 284
313 314 317 316 315 316 315 314 318 319 312 309 312 314 314 316 314 315 321 322 316 312 315 317 316 316 313 314 315 313 314 317 317 315 316 315 310 305 301 296 292 293 295 295 296 296 297 296 295 295 294 294 295 295 294 294 293 292 290 290 289 288 288 288 288 287 287 287 287 286 286 285 285 285 285 285 285 285 285 285 284 284 284 284 283 283
313 315 317 316 315 314 313 312 313 314 312 310 307 306 310 313 310 309 316 319 314 310 310 311 313 316 311 309 313 316 314 315 317 314 310 310 306 299 296 294 292 292 293 293 293 294 295 294 294 293 292 292 293 293 293 293 292 291 290 289 288 288 288 288 287 286 286 287 286 285 285 285 285 285 285 285 285 285 284 284 284 284 283 282 282 281
311 312 313 314 315 314 316 315 312 311 311 309 306 304 306 307 307 307 311 312 309 307 307 306 307 308 305 305 312 319 315 312 315 314 307 303 303 299 294 292 291 291 292 292 292 293 293 292 291 290 290 290 291 291 291 291 291 290 289 288 288 287 287 287 286 286 286 286 285 284 284 284 285 284 284 284 284 284 284 283 283 283 282 281 281 280
310 309 312 315 315 314 314 310 305 305 305 303 304 308 307 305 305 304 304 305 304 303 303 303 303 305 307 306 308 314 315 308 307 310 307 302 300 298 293 290 290 290 291 291 291 292 292 291 290 289 289 289 289 290 290 289 289 289 288 288 287 287 287 286 286 286 286 285 284 284 284 284 284 284 284 284 283 283 283 282 282 282 281 280 280 280
309 309 313 316 314 311 309 305 303 308 308 302 301 304 304 303 303 303 302 302 303 302 302 301 300 301 303 304 304 309 312 307 302 304 305 303 300 297 292 290 290 290 290 290 290 291 291 291 290 289 288 288 288 289 288 288 288 288 288 288 287 286 286 285 285 285 285 284 284 283 283 283 283 283 283 283 282 282 281 281 281 281 280 280 279 279
309 312 313 314 314 314 313 309 308 312 314 306 301 301 300 300 301 302 303 303 303 303 304 303 300 297 295 297 299 302 307 306 300 299 303 303 299 294 290 289 290 289 289 288 289 289 289 290 289 288 288 287 287 287 287 287 287 287 287 287 286 286 285 285 285 284 284 283 283 283 282 282 282 282 282 282 281 281 280 280 279 279 279 279 278 278
312 315 314 312 313 314 314 311 309 311 311 304 299 299 299 299 301 303 303 303 302 302 303 304 305 303 300 296 294 297 304 305 296 295 301 301 293 290 290 290 289 289 288 288 288 287 287 287 287 286 286 286 286 286 286 286 286 285 285 286 286 285 285 285 285 284 283 283 283 282 282 282 281 281 281 280 281 281 280 279 278 277 278 278 277 277
Wind_Speed
5 6 9 9 9 8 7 7 8 7 6 7 6 5 6 7 5 5 3 5 1 5 6 7 7 7 7 8 7 4 3 5 7 7 7 7 6 7 8 8 9 9 10 14 19 22 25 30 31 32 33 33 33 33 32 31 32 34 34 34 34 33 33 32 32 30 30 29 28 27 27 27 26 24 23 22 22 22 21 19 19 19 18 18 17 17
5 9 11 10 8 7 7 8 8 6 4 5 5 6 5 6 5 3 2 4 2 3 4 2 4 8 9 9 6 2 4 7 9 9 9 9 8 7 8 9 10 8 7 8 13 18 22 25 28 30 31 32 32 33 34 34 34 34 34 35 34 34 34 35 34 32 32 32 31 30 29 28 26 24 23 23 23 22 20 19 20 20 20 20 19 18
8 11 13 9 7 7 7 8 9 7 5 4 3 6 5 4 3 1 2 5 3 2 4 1 5 9 9 7 6 5 7 8 9 11 11 10 9 8 9 10 9 8 7 7 10 15 20 23 26 28 30 33 34 34 35 35 35 34 34 35 34 34 35 35 34 33 32 31 31 30 27 26 24 24 23 23 21 21 20 19 19 19 19 19 18 17
9 10 12 8 6 8 8 7 9 6 4 4 3 5 4 4 4 1 3 3 3 1 1 3 4 6 6 4 7 9 8 6 7 10 9 8 9 10 10 10 10 10 10 9 8 11 18 21 23 26 30 32 33 33 33 34 34 34 35 35 35 35 35 35 34 33 30 29 29 29 26 24 23 22 21 21 21 20 19 18 17 17 16 16 15 15
8 7 8 8 7 9 9 8 9 6 4 4 4 5 4 5 5 2 3 2 2 2 2 5 2 5 5 4 8 7 4 5 6 7 9 9 8 7 6 7 9 11 10 10 9 9 14 19 23 27 29 31 31 32 34 35 35 35 36 35 35 35 34 34 33 32 30 28 28 27 25 23 21 21 20 19 20 19 17 16 15 15 14 13 14 14
10 9 7 10 9 8 9 9 9 8 5 5 5 7 7 9 7 4 7 6 3 2 2 3 1 5 5 5 10 5 2 6 5 6 10 10 8 6 6 7 8 9 8 8 8 9 13 19 23 25 26 27 30 32 34 35 35 35 35 34 34 34 34 33 33 32 30 29 28 28 26 24 21 19 19 18 18 17 16 15 13 13 12 11 11 11
8 9 5 10 12 9 9 8 8 8 6 4 5 8 9 9 8 8 9 6 3 4 3 2 4 5 5 4 9 5 5 9 5 6 10 9 8 7 7 7 7 8 7 6 6 7 11 16 19 21 24 27 29 31 31 32 33 33 33 33 33 33 33 33 32 32 31 30 29 28 28 26 22 20 18 16 15 14 14 13 11 10 10 9 9 8
8 10 5 8 10 9 8 7 8 9 8 5 5 6 9 9 10 10 10 5 3 3 2 3 4 3 4 5 6 2 4 9 8 9 10 8 8 8 7 7 7 8 7 7 7 6 9 14 18 21 24 26 26 26 26 27 30 32 32 33 33 33 33 32 32 32 31 31 29 28 27 26 23 21 17 14 13 12 11 10 9 8 8 8 8 8
6 10 7 8 8 7 9 7 8 10 7 5 4 6 7 9 10 10 9 4 2 3 2 3 3 3 5 6 5 1 2 7 9 12 12 10 9 8 8 8 7 7 6 6 7 7 10 14 17 20 21 21 22 22 22 24 26 28 29 30 32 33 32 32 31 31 31 30 29 27 26 24 22 19 16 14 13 12 11 9 8 7 7 8 8 8
3 6 4 6 6 6 7 5 8 11 5 4 6 7 5 5 5 5 6 5 3 2 6 6 4 3 5 5 3 1 1 6 9 10 11 9 8 8 8 8 7 6 5 5 5 6 9 11 14 15 16 17 19 20 20 21 22 24 25 27 29 31 31 31 30 30 30 29 28 27 26 24 20 18 17 15 13 12 11 9 8 8 8 8 7 8
2 1 1 3 4 4 5 3 5 8 7 8 8 7 7 6 5 3 3 4 3 3 7 6 4 2 3 5 4 4 4 7 7 6 7 7 8 8 7 6 6 5 5 4 3 4 6 8 10 12 13 15 16 18 19 20 21 22 23 24 26 27 28 28 29 29 29 29 28 27 26 25 22 20 18 16 14 13 11 10 10 10 9 9 9 9
3 0 2 2 2 2 3 3 1 3 7 9 6 5 5 3 4 3 4 2 3 5 6 4 2 3 4 5 4 5 6 6 7 7 8 9 9 8 7 6 6 5 5 5 4 4 6 7 9 11 12 13 15 16 18 19 20 20 22 23 24 24 24 25 26 28 28 27 26 25 24 23 22 21 19 17 14 11 10 10 11 10 10 9 9 8
3 2 2 3 2 3 3 2 3 2 5 6 6 7 6 1 1 2 2 1 4 5 3 2 1 2 5 7 7 8 9 8 7 7 7 8 9 9 8 7 6 5 5 5 5 5 5 7 9 11 13 13 14 16 17 18 19 19 21 23 24 22 21 23 24 26 26 25 24 23 21 21 20 20 19 17 14 12 11 11 10 10 9 8 7 7
4 4 3 2 2 2 4 4 3 4 5 6 8 8 6 4 4 5 4 1 3 4 2 1 1 2 4 5 8 10 10 8 6 6 6 7 9 9 8 7 5 5 5 5 5 5 5 8 11 12 13 14 15 16 17 19 19 19 20 22 23 21 20 21 22 24 24 23 22 21 20 19 19 19 17 15 14 13 12 11 11 10 9 8 8 6
7 4 3 4 2 1 2 4 4 6 5 3 4 6 6 5 5 5 4 3 3 2 2 2 1 4 4 3 6 7 7 6 4 5 4 3 4 5 5 5 5 5 5 4 5 5 6 9 11 12 13 15 16 16 17 19 20 20 21 22 23 22 20 21 22 23 23 21 20 20 19 19 19 19 16 14 14 13 13 12 11 11 10 9 8 6
9 4 2 2 2 0 1 3 1 7 6 3 2 6 5 5 5 3 3 5 5 1 1 2 3 4 4 5 6 3 5 5 3 4 2 2 3 6 5 5 6 5 5 5 5 5 6 9 12 12 13 14 15 15 16 18 20 21 22 22 22 22 22 22 22 22 22 21 21 20 19 19 19 18 17 16 15 13 13 13 12 12 10 9 8 7
8 3 3 3 1 0 1 3 2 2 5 2 3 5 5 3 8 6 2 1 4 2 2 2 3 5 3 5 6 5 5 6 4 4 1 2 3 6 6 5 5 5 5 5 5 5 6 9 11 12 14 14 15 16 16 18 20 22 22 22 22 22 22 22 22 22 22 22 22 21 20 19 18 18 17 16 16 15 14 13 12 12 11 11 11 12
5 2 3 1 1 2 1 1 2 1 4 4 3 6 3 3 5 5 3 2 3 2 4 1 4 4 1 3 6 6 6 8 6 4 2 3 4 6 6 6 6 6 5 5 5 6 7 10 12 12 13 14 16 17 17 18 19 21 22 23 23 22 22 23 23 23 23 23 23 22 20 20 19 19 18 17 17 16 16 15 14 14 15 15 16 16
4 2 3 1 1 3 3 1 1 2 2 3 4 4 4 3 2 2 3 2 2 3 4 2 3 3 4 5 4 4 9 10 7 5 5 6 7 7 6 6 6 5 5 5 5 5 6 10 12 12 13 13 15 17 17 18 18 20 22 22 23 23 22 23 23 23 23 22 23 22 20 20 19 19 18 18 18 17 17 17 17 18 19 18 17 16
4 4 2 2 1 3 3 2 3 2 2 2 2 2 2 3 5 3 3 4 4 4 3 2 1 3 6 6 6 9 11 10 8 7 8 10 9 8 7 7 7 6 6 6 6 5 6 10 12 13 14 14 15 17 17 18 18 20 21 22 23 23 22 22 22 22 22 22 23 22 21 21 20 20 20 19 19 19 20 20 21 20 20 19 17 16
3 4 2 2 3 0 1 1 4 5 2 2 2 3 2 1 2 2 1 3 4 4 3 2 1 5 6 5 8 11 9 8 9 10 10 9 9 9 8 7 7 7 6 6 6 5 7 10 12 13 14 14 16 17 17 18 19 20 21 22 23 23 23 22 22 22 23 24 24 24 24 23 22 21 20 20 21 22 23 22 21 21 20 19 17 15
2 3 4 2 0 2 4 3 2 3 2 2 3 5 5 3 4 3 3 1 2 3 4 4 2 7 6 4 7 9 5 4 6 8 8 8 9 9 8 8 8 7 7 7 6 6 8 11 13 13 14 15 17 17 18 19 20 21 21 22 24 24 24 24 24 24 25 25 25 25 24 23 23 22 23 24 24 24 24 23 21 20 19 18 16 14
3 4 4 2 3 4 5 4 2 2 2 1 3 4 4 3 5 6 6 3 2 2 2 4 2 6 6 4 6 6 5 4 5 7 8 8 8 8 7 7 7 7 6 6 6 6 9 12 13 14 15 16 17 18 19 20 21 22 23 24 24 25 25 25 25 25 25 26 26 25 25 25 25 26 26 27 26 25 24 23 21 19 17 16 15 13
3 4 4 1 2 2 4 5 2 0 0 1 4 2 3 3 3 5 5 4 4 4 3 3 2 6 6 3 3 5 5 5 5 7 8 7 6 7 8 7 7 7 6 6 6 7 10 12 13 14 15 16 18 19 20 21 22 23 24 24 25 25 25 25 26 26 27 28 28 27 28 28 28 29 28 28 27 25 24 22 20 18 16 15 13 12
2 3 4 4 2 1 2 3 3 3 3 3 3 1 2 4 6 4 2 3 3 4 5 5 4 7 6 4 3 4 5 6 6 6 7 7 6 7 7 7 7 7 6 7 6 6 8 10 12 14 15 17 19 20 21 22 23 24 25 25 26 26 26 27 27 28 29 30 31 30 31 31 30 30 29 28 27 25 23 21 19 17 15 14 13 12
3 4 5 6 7 7 7 7 5 4 3 1 1 1 3 5 7 5 2 4 3 4 5 6 5 6 7 7 6 5 5 6 6 4 5 6 6 7 7 7 7 7 8 9 8 7 8 9 11 14 16 17 19 20 22 23 24 25 25 25 27 28 29 29 29 30 31 32 33 33 32 32 31 30 29 28 26 24 22 20 18 16 15 14 13 12
4 3 6 9 11 11 8 5 5 7 5 4 5 5 6 7 7 5 3 3 5 3 3 6 6 6 8 7 6 7 5 6 6 3 5 6 6 7 7 7 7 7 8 8 8 8 8 8 11 14 16 18 20 21 23 25 25 26 27 27 28 30 31 32 31 32 33 34 34 34 33 32 31 29 28 26 24 22 21 19 18 16 15 14 13 12
5 4 8 11 11 8 8 8 9 12 11 12 12 10 10 9 8 7 6 8 6 5 6 9 7 8 9 7 6 8 6 6 7 6 7 6 6 6 5 6 6 7 7 8 9 10 10 10 10 14 18 20 21 23 24 26 27 28 29 30 30 31 32 33 34 34 34 34 34 33 32 31 30 28 26 25 23 22 20 19 18 16 15 14 13 12
5 6 7 8 5 1 4 8 11 12 13 14 16 17 14 11 10 11 12 10 7 6 11 11 9 10 9 6 8 9 7 7 7 6 4 4 6 6 7 7 8 8 9 10 11 11 12 11 11 15 19 21 23 24 25 26 27 28 29 30 31 33 34 34 35 35 35 35 34 33 32 31 29 27 25 24 23 21 20 19 18 16 15 14 13 12
4 5 4 6 5 3 2 3 8 10 9 8 11 14 13 12 14 15 15 13 10 10 13 8 6 8 8 8 10 8 5 5 3 3 4 6 7 8 9 9 10 10 12 12 12 12 11 11 12 16 19 22 25 27 27 28 28 29 30 31 32 34 34 35 36 36 36 35 34 33 31 30 28 27 25 24 22 21 20 19 17 16 15 14 13 12
2 3 2 5 5 2 5 2 5 6 6 6 8 9 10 12 14 15 16 13 9 9 11 6 6 10 7 7 9 5 2 2 2 4 6 7 8 9 10 10 11 12 13 13 12 11 10 10 12 17 20 24 27 28 29 30 30 31 31 33 34 35 36 36 36 36 36 35 34 33 31 30 28 26 25 23 22 21 20 18 17 16 15 14 13 11
3 2 2 5 5 2 4 3 3 3 2 3 7 8 11 13 12 12 11 9 8 10 11 8 9 10 5 5 7 5 4 5 5 8 8 6 7 10 11 12 13 13 13 13 12 11 12 12 14 19 23 26 28 30 31 32 32 33 34 36 36 36 36 36 36 36 35 35 34 32 31 29 28 26 25 23 22 20 19 18 17 16 14 13 12 10
5 5 3 4 5 3 4 1 4 6 3 5 9 11 15 13 11 9 7 9 11 11 10 10 10 7 4 5 7 5 5 6 9 9 7 6 7 9 11 12 13 14 13 13 13 14 14 16 19 24 27 29 32 34 36 36 37 37 37 37 37 37 37 36 36 36 35 34 33 32 30 29 28 26 25 23 21 20 19 18 17 15 14 12 11 10
6 7 5 4 4 3 4 1 4 5 5 7 5 8 14 14 13 12 11 13 14 10 8 8 5 3 6 8 8 7 8 9 9 8 6 6 7 8 10 12 13 13 12 12 13 14 15 18 22 25 28 30 33 35 35 36 37 36 36 36 37 37 37 37 36 36 35 34 33 31 30 29 27 26 24 22 21 19 19 18 16 14 13 11 10 9
8 7 4 3 4 2 2 3 5 6 8 4 4 1 9 13 14 15 15 14 13 12 11 11 9 6 8 9 8 8 9 9 7 7 6 6 8 10 11 12 13 12 10 10 12 13 15 19 22 25 28 31 32 33 34 34 35 34 35 37 38 38 37 37 36 35 35 34 33 31 30 29 27 26 24 22 21 19 18 17 15 13 12 10 9 8
8 6 3 3 3 2 2 4 6 5 4 6 6 3 2 4 6 7 10 10 9 9 10 13 15 11 8 9 7 4 4 5 5 7 8 8 9 10 11 12 14 13 12 13 15 18 22 27 30 31 32 31 32 33 35 36 36 35 36 36 37 37 36 36 35 35 35 34 33 31 30 28 27 25 24 23 21 20 18 16 14 12 11 10 9 7
7 7 4 2 2 3 3 2 3 5 8 10 9 3 4 4 6 6 6 8 9 11 11 13 15 12 10 10 8 3 2 1 4 7 9 9 10 11 13 13 13 12 12 15 17 20 25 29 30 30 30 30 33 35 36 36 36 36 36 35 35 35 35 35 35 35 35 34 33 31 29 28 26 25 24 23 21 19 17 15 13 12 10 9 8 6
4 5 6 5 2 3 4 0 2 4 10 9 5 5 7 8 9 10 5 7 8 11 13 14 14 12 10 10 7 4 4 1 5 9 9 9 10 12 12 11 10 9 10 12 14 15 18 23 25 27 29 31 33 35 35 36 36 35 35 34 34 34 34 34 35 35 35 34 33 31 29 27 26 25 24 22 20 18 16 14 13 11 9 8 6 5
4 2 6 6 2 3 5 3 4 8 9 4 5 7 9 10 10 10 2 8 7 9 12 13 12 10 10 10 7 7 6 4 8 9 7 8 9 9 9 9 9 9 9 11 14 16 19 22 25 26 29 31 33 35 37 37 37 36 34 34 34 34 33 33 35 35 35 34 32 30 28 27 25 24 23 21 19 17 15 14 12 11 9 7 6 4
5 3 5 7 5 6 7 5 5 6 6 4 6 6 6 10 12 11 2 8 6 8 10 12 12 12 12 10 7 7 8 8 8 7 5 4 4 3 4 7 8 10 11 12 15 18 20 24 26 28 31 35 37 38 38 38 37 36 34 33 34 34 33 34 35 35 34 33 31 29 27 26 25 23 22 20 18 17 15 13 12 10 8 6 5 4
3 2 3 6 6 7 8 6 4 5 6 6 6 4 7 10 9 7 8 7 6 7 6 8 12 12 9 8 6 7 9 7 4 4 3 1 1 1 0 2 4 6 9 12 15 18 22 26 29 32 34 36 37 37 39 39 37 35 33 33 33 33 34 34 35 34 33 32 30 29 27 25 24 23 21 19 17 16 15 13 11 9 7 6 4 3
4 2 1 3 5 4 5 4 3 6 6 6 4 3 6 7 5 7 7 2 4 7 4 4 9 8 6 8 8 8 6 2 1 1 2 1 3 2 1 2 5 5 6 10 14 18 23 24 24 26 27 30 34 38 40 40 37 34 33 33 33 33 34 34 34 34 33 31 29 28 26 25 24 22 21 19 17 16 14 13 11 8 7 6 4 2
7 6 3 4 5 3 3 4 3 6 5 9 10 4 3 5 6 6 3 1 3 5 4 4 6 6 7 8 8 6 4 2 1 1 1 2 2 2 1 2 4 6 7 10 12 17 21 21 20 21 23 27 32 36 38 39 36 33 32 32 32 33 33 34 34 33 31 30 28 27 26 25 24 22 20 19 17 16 14 12 10 8 6 5 4 2
5 7 5 5 4 4 5 7 7 5 5 8 8 5 7 7 4 4 5 4 2 3 4 4 4 5 6 7 7 6 5 3 3 3 2 3 2 2 2 2 3 5 7 8 11 16 19 19 19 19 21 25 31 34 37 38 35 32 31 32 32 33 34 34 33 32 30 29 28 27 26 25 23 22 20 19 17 15 13 12 10 8 6 5 3 2
7 7 6 5 4 4 6 8 6 2 3 2 0 2 5 3 1 3 6 4 2 3 4 4 4 4 4 6 7 6 5 5 5 5 4 4 3 3 2 2 3 5 6 8 11 14 17 18 19 20 20 23 28 32 34 35 35 33 32 32 33 35 35 34 33 31 30 29 28 27 26 25 23 21 19 18 17 15 13 12 10 8 7 5 3 2
5 4 5 4 3 4 4 4 3 2 1 2 3 2 1 2 1 3 5 4 3 4 3 3 3 3 3 5 5 5 6 6 6 6 4 3 3 3 2 3 4 5 7 9 11 13 15 17 19 20 20 21 25 29 31 32 33 34 33 33 34 35 35 35 33 31 29 29 28 27 26 24 23 21 19 18 16 15 13 12 10 8 7 5 4 2
3 3 4 3 4 5 4 2 3 4 2 2 2 2 3 4 2 1 3 4 4 4 3 3 3 3 4 3 3 4 6 5 5 5 3 2 3 3 2 3 5 6 8 10 13 15 17 18 19 20 21 22 24 26 28 28 29 30 32 34 35 35 34 34 33 31 30 30 29 27 26 24 22 21 20 18 16 15 14 12 10 9 8 6 4 3
1 4 4 3 5 6 3 3 1 3 3 2 1 2 3 4 4 4 4 4 4 4 4 4 4 4 3 2 1 3 4 4 5 4 3 3 4 3 3 4 6 7 8 11 14 16 18 20 20 21 22 23 23 25 26 27 27 28 31 34 35 35 34 33 32 32 31 30 29 27 25 24 23 21 20 18 16 15 14 12 10 10 9 7 5 3
4 5 5 3 4 2 1 2 3 3 4 4 2 1 1 2 4 5 4 4 5 5 5 5 4 4 4 3 2 4 3 1 3 4 4 4 4 4 5 7 8 9 10 13 15 17 19 20 21 22 23 23 24 25 26 26 27 28 31 34 35 34 34 33 31 31 31 30 29 28 26 24 23 21 20 18 17 15 14 12 11 10 9 7 5 4
5 5 3 4 4 3 4 6 7 4 1 3 3 1 2 3 5 6 5 6 6 5 5 6 5 4 4 3 3 5 3 1 3 3 4 4 4 6 8 9 10 10 11 13 15 16 17 19 20 22 22 23 24 25 26 27 28 29 31 34 35 34 34 33 32 31 31 30 29 28 27 25 23 22 20 18 17 17 15 13 12 11 10 8 6 5
5 6 6 6 5 6 6 8 7 4 3 3 4 4 3 4 6 7 6 6 5 4 5 6 6 5 4 4 4 5 4 2 3 6 5 4 5 7 9 11 12 12 13 14 16 16 16 16 18 20 21 22 24 25 26 27 28 29 31 33 34 34 34 34 34 33 32 31 30 29 28 26 24 22 21 18 17 17 17 16 14 12 11 10 9 8
Wind_Direction
173 207 231 224 218 219 210 196 194 197 172 164 151 138 164 173 215 232 242 290 146 152 216 206 213 236 241 246 237 223 192 206 236 244 243 238 225 220 215 216 216 216 226 222 217 214 211 211 211 211 212 213 213 213 213 211 211 212 211 211 212 212 212 211 210 210 210 212 214 217 220 224 226 226 229 233 234 236 239 244 246 247 248 252 252 254
219 222 230 225 210 202 198 198 201 199 162 154 153 150 177 186 207 239 238 305 8 165 238 199 209 249 243 243 250 186 177 220 224 221 232 230 224 222 215 220 221 224 234 227 223 218 211 211 210 209 209 210 211 212 213 213 214 213 213 214 214 213 212 213 214 213 215 215 213 214 217 221 225 226 228 231 233 236 240 245 247 248 251 254 257 259
221 232 229 220 201 189 195 203 205 208 181 166 152 145 173 200 200 304 310 330 13 185 256 186 193 244 250 248 260 222 198 223 221 213 221 216 213 216 211 218 221 225 235 229 228 219 212 210 207 207 207 208 211 212 212 213 213 213 213 215 215 215 214 215 216 217 219 219 217 217 219 221 225 229 232 234 237 240 244 248 252 254 254 255 260 264
204 228 225 210 192 190 202 214 208 211 204 189 152 150 185 195 167 198 268 325 27 126 201 155 183 260 277 283 272 241 215 235 234 221 229 221 209 212 213 216 212 212 220 223 229 220 210 208 206 205 206 207 209 210 210 210 210 212 213 215 215 215 216 216 217 219 221 221 219 221 225 229 231 233 236 238 240 243 246 251 256 258 257 257 261 263
220 241 220 198 202 198 199 218 211 194 222 239 185 170 180 184 186 182 159 123 24 356 96 111 50 303 272 251 258 249 210 241 244 223 241 245 227 225 234 231 217 211 209 209 216 214 205 203 204 205 205 206 206 208 210 210 211 212 214 215 216 216 217 217 219 220 221 221 219 220 223 228 231 232 234 235 236 239 241 246 253 257 258 258 261 263
235 247 205 190 207 203 198 214 208 182 203 260 224 197 188 183 185 140 124 108 83 275 269 117 89 291 286 248 245 251 202 234 238 214 233 241 233 229 229 228 222 221 219 212 214 209 200 200 202 204 204 204 205 209 212 213 213 214 215 216 217 218 218 219 220 220 220 220 218 217 216 218 221 223 227 230 234 236 234 237 244 250 253 254 261 263
228 242 205 195 202 197 204 218 206 175 170 235 237 204 189 175 160 141 143 130 136 218 277 99 165 253 308 280 250 256 236 243 258 242 240 239 231 225 219 222 218 217 220 220 223 210 198 198 197 200 203 204 206 210 212 214 215 215 217 218 219 220 221 221 221 220 219 218 218 218 218 218 220 220 224 230 234 232 228 226 225 228 231 233 244 251
205 224 225 209 201 193 204 218 205 169 157 223 242 175 164 163 161 159 158 157 173 192 333 29 138 222 280 268 267 267 228 253 265 250 248 240 229 226 225 227 219 212 205 198 204 203 201 199 195 198 202 204 207 209 210 212 214 215 217 219 220 222 223 223 222 220 218 218 218 218 219 220 222 224 222 217 213 207 204 200 194 201 212 220 229 240
191 213 224 208 201 201 205 209 186 159 159 227 209 141 153 161 162 163 157 148 107 136 256 288 153 191 260 273 305 5 198 254 251 236 238 234 223 222 225 226 223 222 207 190 190 195 203 205 203 203 203 204 206 207 208 210 213 214 216 218 219 220 222 222 221 219 218 219 219 218 218 218 219 221 214 201 197 192 187 182 180 189 196 199 210 228
202 208 213 197 206 213 207 206 175 165 180 196 129 94 78 83 96 121 138 123 87 155 223 232 185 188 263 278 310 30 213 244 240 236 234 226 220 218 222 223 221 223 213 199 196 193 198 204 208 208 205 205 207 208 211 212 213 214 214 215 217 217 218 218 218 218 217 218 218 218 216 214 209 203 196 190 189 186 185 193 202 202 197 198 213 233
267 172 142 189 217 221 188 172 179 180 167 134 106 80 69 51 47 57 65 92 113 237 244 234 202 174 259 274 240 201 221 219 216 243 240 223 225 223 222 218 207 203 198 188 179 176 178 186 196 200 202 205 207 210 213 214 214 214 213 213 212 213 213 214 214 215 215 215 215 215 214 210 203 193 188 185 182 182 190 206 216 218 219 225 234 241
323 106 215 230 220 216 151 112 82 185 156 124 107 110 101 26 18 38 360 55 168 241 257 255 224 157 219 259 241 236 258 233 203 224 226 213 219 218 212 210 200 190 184 172 160 159 157 164 178 189 196 201 205 208 210 210 211 210 209 208 205 205 206 207 208 209 209 208 208 209 208 206 201 196 193 189 186 192 204 210 213 216 220 224 226 229
262 238 270 309 237 187 160 126 74 159 175 129 126 140 129 66 42 164 256 229 212 242 265 260 192 189 233 250 254 259 265 252 226 227 224 211 213 209 201 200 197 187 176 170 170 170 170 175 183 190 196 201 204 208 209 208 206 203 201 200 196 194 195 197 199 199 199 198 198 198 198 197 195 194 195 196 197 203 210 212 210 206 203 200 199 204
229 277 286 286 264 198 173 180 159 177 194 157 150 155 151 140 149 197 231 279 235 245 279 282 211 246 269 266 254 250 254 257 251 251 245 222 212 203 192 185 182 184 180 179 181 181 190 192 192 196 199 202 204 207 208 204 201 197 192 190 188 184 183 185 187 187 188 188 189 192 192 192 191 189 189 192 196 200 205 208 203 194 190 187 186 191
190 229 222 186 213 279 194 216 182 152 163 187 157 139 153 160 160 193 207 187 206 237 294 291 213 191 203 248 248 246 263 276 282 283 268 228 200 168 155 157 165 182 187 185 186 190 201 197 195 198 200 201 201 201 202 198 194 190 185 183 181 175 173 177 178 180 182 182 184 188 190 188 187 186 186 188 194 199 200 194 184 179 181 184 183 182
188 222 278 236 241 145 219 269 194 133 155 228 121 122 169 177 146 147 177 175 168 145 267 236 227 209 206 269 278 283 297 294 331 354 40 117 133 134 145 167 171 181 185 180 183 193 201 196 193 195 197 200 199 195 195 191 186 183 178 177 176 173 172 174 176 178 179 179 180 181 182 181 184 188 190 190 191 192 189 181 176 174 174 173 164 150
183 205 323 322 316 104 213 260 295 160 178 174 119 171 215 154 116 117 162 110 98 144 243 207 241 290 306 292 308 344 318 297 327 353 50 163 167 159 170 181 178 182 181 181 184 181 186 188 190 191 191 195 196 192 190 187 184 180 176 173 171 169 169 172 174 175 175 175 174 175 178 180 185 189 188 186 184 180 177 175 174 170 160 150 142 134
163 151 330 21 143 260 250 211 320 348 141 126 156 196 191 109 95 107 142 18 56 192 268 235 211 275 271 254 320 337 289 271 269 278 261 221 205 194 194 190 188 186 180 182 185 179 179 179 180 181 181 186 191 192 189 185 184 180 175 173 171 168 168 170 172 172 172 174 175 178 182 184 186 186 183 181 179 175 173 168 162 156 146 138 135 131
149 144 303 18 187 285 345 84 267 340 91 133 173 166 119 139 180 113 148 167 155 209 282 299 237 247 198 216 286 267 240 243 240 235 235 223 211 206 205 201 198 187 178 182 182 181 179 175 173 171 170 174 180 185 185 182 182 180 175 173 172 171 171 172 174 175 176 178 180 180 182 183 181 179 178 176 174 171 166 157 149 145 139 135 132 129
150 145 266 304 302 309 359 49 191 225 354 33 93 126 95 139 172 173 158 161 174 203 244 287 287 254 227 215 217 225 227 222 212 212 220 216 208 205 201 195 194 188 185 185 181 183 180 175 172 167 166 166 168 173 175 176 179 181 179 177 176 175 175 178 181 182 181 180 179 176 173 174 173 173 173 171 168 163 155 148 144 141 137 134 132 130
147 149 197 301 344 351 197 236 196 194 184 83 114 175 189 57 119 156 124 126 141 165 190 195 258 259 249 208 202 222 227 211 204 210 219 215 205 206 202 192 190 188 189 187 178 179 178 173 170 164 162 162 161 163 165 167 170 173 177 179 179 178 177 177 178 177 173 171 170 168 167 168 169 169 168 164 160 154 147 144 143 139 137 135 132 131
166 161 154 168 328 184 231 271 220 211 217 165 185 191 183 135 112 155 236 237 123 145 172 163 215 265 259 199 208 229 229 215 213 213 222 219 204 205 203 193 190 185 186 185 178 174 173 171 167 162 159 158 158 159 160 163 163 164 166 168 169 171 170 169 169 167 165 164 165 166 165 166 166 165 161 156 153 148 144 143 141 139 139 137 133 132
119 114 114 154 210 209 248 272 196 215 279 251 220 194 172 154 132 159 209 223 153 154 147 126 164 272 263 212 215 241 248 247 229 214 220 220 206 203 198 190 189 185 182 177 173 173 171 170 165 160 159 159 159 160 161 163 164 163 163 163 164 166 166 167 167 167 166 165 165 165 164 162 160 158 155 152 149 146 143 142 140 140 141 137 132 130
113 109 107 77 302 314 311 320 351 161 211 248 241 190 153 183 150 155 185 179 162 175 151 128 216 268 275 262 236 253 265 263 247 224 215 213 204 198 192 186 185 180 174 169 167 168 166 165 163 162 162 162 162 164 165 166 166 165 166 167 168 168 167 168 168 167 166 164 162 161 159 156 154 153 152 149 147 145 143 141 140 141 139 134 131 128
148 148 133 122 116 13 324 294 280 228 186 204 241 222 138 119 103 115 136 107 160 204 164 158 223 252 273 313 309 291 297 282 259 232 210 203 196 194 188 183 183 174 167 167 165 165 166 166 170 170 169 168 167 168 168 168 168 169 169 170 171 169 167 168 168 166 165 162 159 157 155 153 152 152 151 149 147 145 143 142 141 140 136 133 132 127
147 163 149 145 171 190 198 206 209 194 177 201 232 194 168 140 137 166 149 112 205 232 158 167 217 249 277 313 316 304 304 282 265 231 211 210 193 189 185 179 180 174 172 174 171 172 174 175 177 177 175 174 172 171 170 169 170 170 171 172 172 171 168 167 166 164 162 160 157 155 154 153 153 153 151 149 147 145 144 142 141 140 137 135 133 128
122 173 182 180 194 198 186 177 151 134 140 209 213 188 190 192 177 160 123 158 199 179 180 215 208 220 257 276 283 284 274 262 268 230 211 217 198 191 186 175 176 175 175 176 173 174 177 179 182 180 178 178 176 174 173 172 173 172 172 172 172 171 168 166 165 163 161 159 157 155 155 154 154 154 151 149 147 146 145 144 143 143 141 137 134 129
118 203 199 193 208 200 173 174 166 157 174 199 203 198 200 199 178 166 194 211 178 143 232 243 199 202 237 235 237 256 247 242 254 235 216 207 185 176 163 157 167 174 177 180 182 183 182 182 183 181 181 180 177 177 177 176 176 175 174 172 171 170 169 167 166 164 161 159 158 156 155 155 154 153 151 150 148 148 147 147 147 146 142 138 134 127
146 202 196 184 203 175 164 185 179 177 188 194 198 202 199 188 177 190 214 212 163 170 234 232 188 203 233 220 222 233 218 220 235 222 194 165 153 151 151 163 176 181 187 193 194 192 187 185 184 182 182 180 178 179 179 179 178 176 174 173 171 171 171 169 167 165 162 161 159 157 156 155 155 154 153 152 150 150 150 149 148 145 140 136 131 124
170 193 178 161 152 68 14 214 189 188 192 193 203 203 193 186 188 198 215 213 189 206 236 235 209 229 234 218 228 238 222 229 233 148 151 162 163 163 167 178 188 192 197 199 198 196 192 188 184 182 181 181 182 182 181 180 179 177 175 174 173 173 172 171 169 166 164 162 160 158 157 157 156 155 154 154 153 152 151 150 147 143 139 133 127 121
161 182 146 122 129 49 354 347 190 196 190 195 212 204 189 195 202 208 218 215 203 227 250 262 266 263 245 211 231 247 192 171 162 178 196 192 175 171 177 189 197 202 204 203 199 194 191 187 184 185 187 187 187 184 182 181 179 178 177 176 176 175 174 173 171 167 165 163 160 160 159 158 157 157 156 156 155 153 151 150 146 141 137 132 125 120
107 125 81 98 141 225 344 30 152 143 110 232 239 213 194 198 206 213 218 205 191 219 239 245 251 256 234 189 224 227 155 159 204 219 218 206 180 177 187 197 204 208 207 201 195 190 190 191 190 191 192 190 188 186 184 182 180 179 180 179 178 177 175 174 171 167 166 164 162 162 161 160 159 158 159 158 156 154 151 149 145 141 138 133 127 121
128 128 117 129 162 225 319 334 141 110 96 257 246 209 197 201 204 209 224 222 208 206 214 225 235 231 186 186 216 206 171 200 227 227 214 203 193 191 199 205 209 212 208 199 194 192 194 197 197 196 193 190 189 189 187 184 182 182 182 180 178 177 175 174 172 169 167 165 164 164 163 162 161 160 160 159 156 154 151 149 147 143 140 134 127 120
144 138 153 159 147 205 267 256 118 132 197 242 246 189 188 194 196 202 218 223 217 210 217 237 244 179 171 203 213 196 192 211 228 230 212 187 181 196 213 220 220 219 211 201 197 197 199 200 199 198 196 194 193 191 189 187 185 184 182 180 178 177 176 175 173 170 168 166 165 166 165 164 164 162 161 159 156 155 152 151 149 145 140 134 126 119
149 137 149 130 107 161 207 115 134 197 220 257 332 219 192 191 192 204 221 226 219 218 230 249 252 212 197 221 224 202 206 226 249 257 237 195 183 194 209 221 225 221 210 202 201 204 203 199 196 197 198 197 194 189 187 187 186 184 182 180 179 178 178 176 173 171 169 168 167 168 167 167 166 164 161 159 157 156 155 153 150 145 140 133 127 120
143 134 126 110 111 136 120 138 187 226 281 297 298 295 193 174 169 200 240 251 234 218 223 238 244 233 219 235 241 204 202 248 284 276 247 217 202 202 209 218 222 217 208 202 201 201 201 199 197 197 197 194 190 188 187 187 186 183 182 180 179 179 178 176 173 171 171 170 170 170 169 169 168 165 162 161 159 158 157 154 150 146 140 134 129 120
143 137 125 129 170 143 128 201 254 324 311 274 254 216 164 157 147 162 231 254 226 207 210 224 237 239 230 235 239 192 147 282 302 276 251 227 214 213 216 221 222 219 217 213 210 209 206 203 200 197 193 188 187 189 188 187 186 182 180 179 179 179 178 176 174 173 173 172 172 171 171 171 170 167 163 162 161 159 157 154 151 148 143 137 132 123
144 153 159 175 217 104 112 213 306 286 266 252 221 189 185 176 159 155 196 252 227 204 207 217 227 230 228 237 231 163 133 209 265 264 250 225 220 221 224 233 235 232 231 221 213 212 207 202 199 195 191 187 187 189 188 186 184 181 178 179 179 178 178 177 176 175 174 173 173 173 172 172 171 169 165 163 162 160 158 156 155 152 145 141 137 127
85 88 146 158 169 123 147 191 209 233 251 222 163 192 192 169 144 127 177 265 233 196 204 213 219 220 219 227 207 146 140 216 247 252 236 218 227 226 222 236 240 233 232 219 209 206 199 194 192 189 186 186 187 189 189 186 183 180 179 180 179 179 180 179 178 177 176 175 174 173 173 172 171 170 166 163 162 161 161 160 157 153 148 144 140 130
90 81 147 167 179 170 178 205 221 239 254 214 195 206 175 149 128 116 200 259 221 189 198 197 204 217 213 206 179 151 180 217 235 249 244 228 237 219 208 227 229 223 220 209 204 203 193 186 182 180 184 189 190 188 187 184 182 181 181 181 180 181 182 182 180 178 176 175 174 174 173 171 171 169 166 165 164 163 163 163 160 156 152 148 143 134
99 118 168 177 176 172 182 207 248 261 241 219 218 192 145 133 124 150 212 235 201 199 200 180 199 218 202 172 163 186 211 222 236 274 300 326 153 119 65 203 194 203 207 196 192 190 183 182 185 186 190 192 189 185 184 182 181 182 182 181 182 184 185 183 180 178 177 175 174 174 172 171 170 169 167 167 167 166 166 164 162 160 156 153 149 135
150 144 163 164 157 159 177 192 258 275 237 179 153 156 152 145 165 207 222 217 176 197 203 186 206 210 174 171 190 204 215 236 257 284 340 16 181 186 16 112 127 135 162 174 180 181 177 179 184 187 188 189 186 184 183 182 181 183 183 183 185 186 185 182 180 178 177 176 174 173 172 170 170 171 170 169 170 169 168 165 164 164 161 156 152 134
166 159 179 187 167 136 141 171 222 261 222 140 119 122 195 195 202 206 193 106 162 181 176 197 217 204 179 191 206 200 180 185 238 260 314 287 223 189 187 159 136 137 145 155 171 178 175 174 178 181 183 185 185 184 183 182 182 182 183 184 186 185 183 181 179 178 177 176 174 173 172 171 172 172 172 171 171 171 169 167 167 166 162 157 152 135
185 173 179 200 183 145 164 196 212 217 180 144 132 166 199 202 201 171 152 150 182 181 167 179 214 214 192 186 191 186 172 184 214 222 225 233 228 197 187 159 140 149 151 155 168 175 173 171 171 174 178 182 184 184 184 184 183 181 183 185 185 183 181 179 178 178 177 176 174 173 173 174 174 174 173 171 172 173 173 171 169 165 163 162 155 133
213 197 177 183 185 170 187 209 222 216 164 139 35 230 190 167 143 159 147 138 174 195 176 167 187 208 188 166 162 167 182 201 208 209 211 209 202 192 180 160 155 158 155 155 162 170 173 171 168 167 172 179 184 185 186 187 185 183 184 185 184 182 180 179 178 178 176 175 175 175 176 175 175 174 173 172 173 175 176 174 172 169 166 163 152 122
237 195 151 149 193 243 245 201 153 103 57 43 5 324 169 86 74 150 131 118 160 181 168 157 158 164 166 154 148 170 201 202 195 207 221 210 192 181 153 145 157 155 153 155 157 164 169 167 164 165 168 175 184 187 188 190 190 187 185 183 182 182 180 179 179 178 177 176 177 177 176 176 175 173 174 175 175 175 177 175 174 171 164 156 145 119
285 171 142 142 175 203 246 248 142 135 146 124 67 40 53 52 38 106 118 127 147 141 120 109 103 121 149 150 151 190 205 192 180 195 202 174 184 195 162 151 160 161 164 165 163 166 167 164 164 168 170 175 183 187 189 191 192 191 187 183 181 181 181 181 180 178 177 177 177 177 177 177 176 176 176 178 177 175 176 176 174 169 161 154 148 130
206 159 164 181 177 178 216 276 194 111 80 58 100 117 100 81 59 47 65 100 105 83 65 53 59 82 78 35 68 155 164 174 181 183 181 186 194 191 183 182 174 168 172 174 172 173 173 170 172 175 175 178 181 185 188 190 191 192 189 185 183 183 183 182 181 179 178 178 178 178 179 179 179 179 179 180 178 175 176 175 172 168 163 160 157 142
143 156 175 164 152 154 293 219 163 85 35 345 313 290 195 150 110 82 71 82 83 78 72 59 53 80 82 51 66 102 97 200 200 168 172 197 198 189 193 193 184 178 180 181 181 182 182 182 182 181 180 182 182 184 187 189 190 192 191 188 187 186 184 182 181 179 179 179 179 180 180 180 181 182 182 180 177 174 173 173 170 167 164 163 158 142
142 163 171 134 147 206 219 190 174 140 126 238 235 224 226 181 128 105 90 85 85 96 105 90 72 77 93 99 115 114 113 215 211 178 188 208 209 204 196 186 183 186 186 185 187 190 191 192 190 186 185 185 184 185 187 189 190 192 192 191 189 188 185 182 180 179 180 181 182 182 183 183 183 182 181 180 177 173 170 166 166 167 167 166 158 145
169 181 175 155 175 224 211 178 164 131 115 175 183 161 163 155 123 108 105 104 102 113 123 109 89 73 59 39 50 89 107 154 178 172 189 218 218 209 200 191 188 189 188 189 191 192 195 197 194 191 190 188 187 187 189 190 191 191 192 193 192 190 188 185 181 181 182 184 185 185 185 185 184 182 180 179 178 177 172 165 164 167 170 167 160 152